C/2007 D1 ( LINEAR )

Japanese version
Home page
Updated on September 3, 2011

---------------------------------------------------------------------

* Profile

Discovery Date February 17, 2007
Magnitude 18.9 mag
Discoverer Lincoln Laboratory Near-Earth Asteroid Research project

* Pictures

* Orbital Elements

Epoch 2007 June 29.0 TT = JDT 2454280.5
T 2007 June 19.46471 TT                                 MPC
q   8.7937226            (2000.0)            P               Q
z  -0.0002176      Peri.  340.15942     -0.88994759     -0.44441119
 +/-0.0000015      Node   171.09853     +0.45350164     -0.83857149
e   1.0019135      Incl.   41.45027     -0.04826552     +0.31511356
From 441 observations 2007 Feb. 17-2011 May 1, mean residual 0".6.

* Finding Charts

* Magnitudes Graph

        m1 = 3.0 + 5 log d + 10.0 log r

---------------------------------------------------------------------

The orbital elements are published on M.P.E.C. 2011-J28.
The charts are made with StellaNavigator Ver.2.0 for Windows (AstroArts / ASCII).
The magnitudes graphs are made with Comet for Windows.

---------------------------------------------------------------------

Copyright(C) Seiichi Yoshida (comet@aerith.net). All rights reserved.